Погода в Леуши

Погода в Леуши : погода сейчас, прогноз погоды и архив. Всё, что Вы хотите узнать о погоде в Леуши!

Хотите узнать прогноз погоды в Леуши? Тогда Вам сюда: Погода в Леуши

Поиск расширенной информации на нашем сайте:

Другие новости

Новости СМИ2

Главная страница сайта

Новости сайта

02.10.2013

Напоминаем, что на нашем новом сайте вы можете получить высокодетализированные прогнозы погоды по пунктам России, СНГ и мира (включающие важные для авиации метеовеличины, такие как направление и скорость ветра, видимость, явления погоды, количество и форма облачности, нижняя и верхняя граница облачности), а также ознакомиться с разнообразными материалами по авиационной метеорологии и подборкой полезных ссылок на эту тему.

Сайт Метеоцентр.Азия посвящён разработке технологий оптимизации авиаметеорологического обслуживания, включая проектирование и перспективное создание нескольких автоматизированных авиаметеорологических систем:
- система выпуска высокодетальных прогностических карт явлений погоды для нижнего воздушного пространства по России и ближнему зарубежью;
- система верификации прогнозов TAF (выпускаемых синоптиками официальных АМСГ РФ и ближнего зарубежья) и AUTOTAF (выпускаемых сайтом Метеоцентр.Азия) - выявление ошибок, онлайн-сопоставление с фактической погодой METAR, автоматическое внесение коррективов в прогнозы при резком отклонении фактической погоды от прогноза, подсчёт оправдываемости прогнозов по элементам и в целом;
- система обработки, анализа и отображения авиаметеорологической информации для применения провайдерами метеорологической информации.

Рекомендуем: Сервисный центр ремонт компьютеров оболенск заменит материнскую плату.

Погода в Леуши - сегодня

Время (UTC), дата Ветер
(°,м/с) 
Видим.   Явления Облачность Т
(°С)
Тd
(°С)
f(%) Тe
(°С)
Pmin
(гПа)
dP
(гПа)
Po
(мм)
O2
(г/м3)
Тmin Tmax R s Состояние
почвы
21 25.05.17 180 (Ю) 20000 м    ясно 
+0.9 -4.8 66 +2  1019.8  1.1  758  305           
00 26.05.17 170 (Ю) 20000 м    1/0 средняя 
[Ac lent]
+2.1 -4.9 60 +1  1020.9  1.2  759  304           
03 26.05.17 170 (Ю) 20000 м    1/0 верхняя 
[Ci fib]
+9.6 -4.5 37 +10  1020.4  -0.2  759  296  -0.7        влажная 
06 26.05.17 170 (Ю) 20000 м    10/0 верхняя 
[Ci sp]
+13.7 -5.1 27 +14  1018.4  -1.9  758  291           
09 26.05.17 170 (Ю) 4-10{11}  20000 м    10/8 600 м средняя 
[Sc|Ac As]
+16.1 -3.9 25 +16  1015  -3.3  755  288           
12 26.05.17 170 (Ю) 4{13}  20000 м    10/8 600 м средняя 
[Sc|Ac trans]
+17.3 -1.8 27 +18  1011.5  -3.4  752  285           
15 26.05.17 170 (Ю) 3{13}  20000 м    10/8 600 м кучево-дожд., средняя, верхняя 
[Cb cap|Ac lent|Ci sp]
+17.2 +1.4 34 +18  1008.6  -2.9  750  284    +18.1       
21 26.05.17 170 (Ю) 20000 м  {дождь}  10/6 600 м кучево-дожд., средняя, верхняя 
[Cb cap|Ac lent|Ci sp]
+15.7 +8.8 63 +17  1006.5  -0.2  749  284           
00 27.05.17 160 (Ю) 20000 м  {дождь}  5/0 верхняя 
[Cc]
+14.6 +9.3 70 +16  1006.7  0.1  749  285           
03 27.05.17 240 (ЮЗ) 20000 м    10/4 600 м средняя, верхняя 
[Sc|Ac trans|Cc]
+18.3 +10 58 +21  1006.6  0.1  749  281  +14    0.0     
06 27.05.17 200 (Ю) 20000 м    10/0 верхняя 
[Ci sp]
+24.2 +8.7 37 +24  1005.4  -1.1  748  275           
09 27.05.17 190 (Ю) 20000 м    10/8 600 м кучево-дожд., верхняя 
[Cb cap|Ci sp]
+25.2 +5.2 28 +25  1003.2  -2.1  746  275           
12 27.05.17 160 (Ю) 20000 м  гроза без осадков  10/8 600 м кучево-дожд., верхняя 
[Cb cap|Cs]
+24.2 +5.2 29 +24  1001.4  -1.9  745  275           
15 27.05.17 290 (З) 1{11}  20000 м  в посл. час гроза{ливн. осадки}  10/8 600 м кучево-дожд., средняя, верхняя 
[Cb cap|Ac lent|Cs]
+19 +9.4 54 +22  1001.7  0.2  745  279    +25.9  0.0     
18 27.05.17 160 (Ю) 20000 м  {гроза, ливн. осадки}  10/10 600 м 
[Sc]
+17.5 +7.9 53 +18  1000.4  -1.3  744  280           
21 27.05.17 170 (Ю) 20000 м    10/10 600 м 
[Sc]
+15.9 +8.9 63 +17  998.5  -2  743  281           
00 28.05.17 160 (Ю) 20000 м    10/6 600 м средняя 
[Sc|Ac trans]
+15.1 +8.7 66 +16  997.1  -1.4  742  282           
03 28.05.17 тихо ()   10 км  слаб. дождь  10/10 600 м 
[Sc]
+16.9 +9.4 61 +18  995  -2  740  279  +14.5    0.0     
06 28.05.17 150 (ЮВ) 20000 м  {дождь}  10/6 600 м верхняя 
[Sc|Ci sp]
+20.2 +8.2 46 +20  993.5  -1.4  739  276           
15 28.05.17 310 (СЗ) 9-15{15}  20000 м  {дождь}  10/10 300 м 
[Frnb]
+2.8 +0.7 86 -1  1001  2.3  744  297    +21.9  0.3     
21 28.05.17 310 (СЗ) 4{12}  20000 м    9/9 600 м 
[Sc]
+2.1 -0.7 82 1004.4  1.4  747  299           
00 29.05.17 300 (СЗ) 4{12}  20000 м    10/10 600 м 
[Sc]
+1.8 -0.9 82 1005.3  0.9  747  299           
03 29.05.17 310 (СЗ) 20000 м    10/8 600 м верхняя 
[Sc|Ci fib]
+3 -1.8 71 +1  1005.9  0.6  748  298  +1.5        влажная 
06 29.05.17 310 (СЗ) 20000 м    10/10 300 м 
[Frnb]
+4.1 -4.4 54 +2  1006.6  0.8  749  298           
09 29.05.17 320 (СЗ) 20000 м    10/10 600 м 
[Sc]
+5.6 -5 46 +3  1006.9  0.3  749  296           
Время (UTC), дата Ветер
(°,м/с) 
Видим.   Явления Облачность Т
(°С)
Тd
(°С)
f(%) Тe
(°С)
Pmin
(гПа)
dP
(гПа)
Po
(мм)
O2
(г/м3)
Тmin Tmax R s Состояние
почвы

Для получения пояснительной информации подведите курсор к названию столбца.

ПОГОДА в Леуши - архив

Всё, что Вы хотите узнать о погоде в Леуши - удобно и подробно!

Выберите нужную дату (начиная с 1 января 2015* года) и нажмите кнопку "Найти".
Будут отображены архивные сводки погоды по пункту Леуши, начиная с указанной даты.


Отображать данные в формате CSV (для использования в таблицах Excel)


Внимание! Наш архив погоды предназначен исключительно для личного некоммерческого использования в познавательных целях. Если Вам необходимы официальные справки о состоянии погоды (для производственных, юридических, коммерческих и т.п. целей), обращайтесь в органы Росгидромета.

*Примечание: данная дата относится к архиву по метеостанциям СССР (Россия, СНГ, Балтия).
Архив по метеостанциям Зарубежной Европы и Азии (кроме Китая) хранится 10 дней, по другим регионам земного шара (Китай, Африка, Америка, Австралия, Океания) - 1 день.

Леуши - район местоположения метеостанции


Название, широта, долгота, высота метеостанции:
Леуши 59.6°ш. 65.7°д. 72 м над ур. моря [Российская Федерация]

Дополнительная информация

В oтличие oт бoльшинства пoгoдных сайтoв мы публикуем пoдрoбную метеoинфoрмацию в детальнoм прoфессиoнальнoм фoрмате.

Характеристики температуры и влажнoсти вoздуха измеряются на высoте 2 м в тени вдали oт зданий и деревьев.
Скoрoсть ветра измеряется на высoте 10 м (на урoвне рoста челoвека скoрoсть ветра ниже в 1.5-2 раза). Если метеoстанция нахoдится в гoрoде или в лесу, тo скoрoсть ветра занижена на 2-4 м/с пo сравнению с oткрытым местoм. Скoрoсть ветра над акватoриями крупных рек и oзёр, а также на вершинах хoлмoв на 2-5 м/с выше, чем в oбычных услoвиях.
Атмoсфернoе давление в разных тoчках местнoсти мoжет значительнo oтличаться oт давления на метеoстанции, в зависимoсти oт услoвий рельефа (при пoдъёме на 10 м давление пoнижается примернo на 1 мм рт.ст.).